Probability
0 0 0 0 0 0 0 0 0 0 0 0 0 0 0 0 0 0 0 0 0 0 0 0 0 0 0 0 0 0 0 0 0 0 0 0 0 0 0 0 0 0 0
0 0 0 0 0 0 0 0 0 0 0 0 0 0 0 0 0 0 0 0 0 0 0 0 0 0 0 0 0 0 0 0 0 0 0 0 0 0 0 0 0 0 0
0 0 0 0 0 0 0 0 0 0 0 0 0 0 0 0 0 0 0 0 0 0 0 0 0 0 0 0 0 0 0 0 0 0 0 0 0 0 0 0 0 0 0
0 0 0 0 0 0 0 0 0 0 0 0 0 0 0 0 0 0 0 0 0 0 0 0 0 0 0 0 0 0 0 0 0 0 0 0 0 0 0 0 0 0 0
0 0 0 0 0 0 0 0 0 0 0 0 0 0 0 0 0 0 0 0 0 0 0 0 0 0 0 0 0 0 0 0 0 0 0 0 0 0 0 0 0 0 0
0 0 0 0 0 0 0 0 0 0 0 0 0 0 0 0 0 0 0 0 0 0 0 0 0 0 0 0 0 0 0 0 0 0 0 0 0 0 0 0 0 0 0
0 0 0 0 0 0 0 0 0 0 0 0 0 0 0 0 0 0 0 0 0 0 0 0 0 0 0 0 0 0 0 0 0 0 0 0 0 0 0 0 0 0 0
0 0 0 0 0 0 0 0 0 0 0 0 0 0 0 0 0 0 0 0 0 0 0 0 0 0 0 0 0 0 0 0 0 0 0 0 0 0 0 0 0 0 0
0 0 0 0 0 0 0 0 0 0 0 0 0 0 0 0 0 0 0 0 0 0 0 0 0 0 0 0 0 0 0 0 0 0 0 0 0 0 0 0 0 0 0
0 0 0 0 0 0 0 0 0 0 0 0 0 0 0 0 0 0 0 0 0 0 0 0 0 0 0 0 0 0 0 0 0 0 0 0 0 0 0 0 0 0 0
0 0 0 0 0 0 0 0 0 0 0 0 0 0 0 0 0 0 0 0 0 0 0 0 0 0 0 0 0 0 0 0 0 0 0 0 0 0 0 0 0 0 0
0 0 0 0 0 0 0 0 0 0 0 0 0 0 0 0 0 0 0 0 0 0 0 0 0 0 0 0 0 0 0 0 0 0 0 0 0 0 0 0 0 0 0
0 0 0 0 0 0 0 0 0 0 0 0 0 0 0 0 0 0 0 0 0 0 0 0 0 0 0 0 0 0 0 0 0 0 0 0 0 0 0 0 0 0 0
0 0 0 0 0 0 0 0 0 0 0 0 0 0 0 0 0 0 0 0 0 0 0 0 0 0 0 0 0 0 0 0 0 0 0 0 0 0 0 0 0 0 0
0 0 0 0 0 0 0 0 0 0 0 0 0 0 0 0 0 0 0 0 0 0 0 0 0 0 0 0 0 0 0 0 0 0 0 0 0 0 0 0 0 0 0
0 0 0 0 0 0 0 0 0 0 0 0 0 0 0 0 0 0 0 0 0 0 0 0 0 0 0 0 0 0 0 0 0 0 0 0 0 0 0 0 0 0 0
0 0 0 0 0 0 0 0 0 0 0 0 0 0 0 0 0 0 0 0 0 0 0 0 0 0 0 0 0 0 0 0 0 0 0 0 0 0 0 0 0 0 0
0 0 0 0 0 0 0 0 0 0 0 0 0 0 0 0 0 0 0 0 0 0 0 0 0 0 0 0 0 0 0 0 0 0 0 0 0 0 0 0 0 0 0
0 0 0 0 0 0 0 0 0 0 0 0 0 0 0 0 0 0 0 0 0 0 0 0 0 0 0 0 0 0 0 0 0 0 0 0 0 0 0 0 0 0 0
0 0 0 0 0 0 0 0 0 0 0 0 0 0 0 0 0 0 0 0 0 0 0 0 0 0 0 0 0 0 0 0 0 0 0 0 0 0 0 0 0 0 0
0 0 0 0 0 0 0 0 0 0 0 0 0 0 0 0 0 0 0 0 0 0 0 0 0 0 0 0 0 0 0 0 0 0 0 0 0 0 0 0 0 0 0
0 0 0 0 0 0 0 0 0 0 0 0 0 0 0 0 0 0 0 0 0 0 0 0 0 0 0 0 0 0 0 0 0 0 0 0 0 0 0 0 0 0 0
0 0 0 0 0 0 0 0 0 0 0 0 0 0 0 0 0 0 0 0 0 0 0 0 0 0 0 0 0 0 0 0 0 0 0 0 0 0 0 0 0 0 0
0 0 0 0 0 0 0 0 0 0 0 0 0 0 0 0 0 0 0 0 0 0 0 0 0 0 0 0 0 0 0 0 0 0 0 0 0 0 0 0 0 0 0
0 0 0 0 0 0 0 0 0 0 0 0 0 0 0 0 0 0 0 0 0 0 0 0 0 0 0 0 0 0 0 0 0 0 0 0 0 0 0 0 0 0 0
0 0 0 0 0 0 0 0 0 0 0 0 0 0 0 0 0 0 0 0 0 0 0 0 0 0 0 0 0 0 0 0 0 0 0 0 0 0 0 0 0 0 0
Height
5718 5719 5720 5721 5722 5724 5726 5728 5729 5730 5731 5733 5734 5736 5737 5738 5739 5739 5740 5741 5742 5742 5742 5742 5743 5743 5743 5743 5743 5743 5743 5743 5743 5744 5744 5744 5744 5744 5744 5745 5745 5746 5746
5709 5709 5710 5711 5713 5714 5715 5717 5718 5720 5721 5722 5723 5725 5726 5727 5728 5728 5729 5730 5730 5731 5731 5731 5732 5731 5731 5731 5732 5732 5732 5732 5732 5732 5733 5733 5734 5733 5733 5733 5734 5734 5734
5699 5699 5700 5701 5702 5703 5705 5707 5707 5709 5710 5711 5712 5713 5714 5715 5716 5717 5718 5718 5718 5719 5719 5719 5719 5719 5719 5719 5719 5720 5720 5720 5720 5720 5721 5721 5722 5722 5723 5722 5722 5722 5722
5689 5690 5690 5692 5693 5693 5694 5695 5696 5698 5699 5700 5701 5702 5702 5703 5704 5705 5705 5706 5706 5706 5706 5706 5706 5706 5706 5707 5707 5707 5707 5708 5708 5708 5708 5709 5709 5710 5711 5711 5710 5710 5710
5680 5680 5681 5681 5682 5683 5683 5684 5685 5686 5687 5688 5689 5689 5690 5690 5691 5692 5692 5693 5693 5693 5693 5693 5693 5693 5693 5694 5694 5694 5694 5694 5695 5695 5695 5695 5696 5696 5697 5698 5698 5698 5698
5670 5670 5670 5671 5671 5672 5672 5673 5673 5674 5675 5676 5676 5677 5677 5678 5678 5678 5679 5679 5679 5679 5679 5679 5679 5680 5680 5680 5680 5681 5681 5681 5681 5681 5681 5682 5682 5683 5683 5684 5685 5685 5685
5659 5660 5660 5660 5660 5661 5661 5661 5661 5662 5663 5663 5664 5664 5664 5664 5665 5665 5665 5665 5665 5665 5665 5665 5665 5665 5666 5666 5666 5666 5666 5667 5667 5667 5668 5668 5668 5669 5669 5670 5670 5671 5671
5648 5649 5649 5649 5649 5649 5649 5649 5649 5650 5650 5651 5651 5651 5651 5651 5651 5650 5650 5650 5650 5650 5650 5650 5651 5651 5651 5651 5651 5651 5651 5652 5652 5653 5653 5654 5654 5654 5655 5655 5656 5657 5657
5637 5637 5637 5637 5637 5637 5637 5637 5637 5637 5637 5637 5637 5637 5637 5636 5636 5636 5635 5635 5635 5635 5635 5635 5636 5636 5636 5636 5636 5636 5636 5637 5637 5638 5638 5639 5640 5640 5640 5640 5641 5642 5643
5626 5626 5625 5625 5625 5625 5624 5624 5624 5624 5623 5623 5623 5623 5622 5622 5621 5621 5621 5621 5620 5620 5620 5620 5621 5621 5621 5621 5621 5621 5622 5622 5622 5622 5623 5624 5624 5625 5625 5625 5625 5625 5626
5615 5614 5613 5613 5612 5612 5611 5611 5610 5610 5609 5609 5608 5608 5607 5607 5606 5606 5606 5605 5605 5605 5605 5605 5605 5605 5605 5606 5606 5606 5607 5607 5607 5607 5608 5608 5608 5609 5609 5609 5609 5609 5609
5603 5602 5601 5600 5600 5599 5598 5597 5597 5596 5595 5594 5594 5593 5592 5592 5591 5591 5590 5590 5590 5589 5589 5589 5589 5590 5590 5589 5590 5590 5591 5591 5591 5592 5592 5593 5593 5593 5593 5593 5593 5593 5593
5590 5589 5588 5588 5587 5586 5585 5584 5583 5582 5581 5580 5579 5578 5577 5577 5576 5576 5576 5575 5574 5574 5574 5573 5573 5573 5574 5574 5574 5574 5574 5575 5575 5576 5576 5577 5577 5577 5577 5577 5577 5577 5577
5578 5577 5576 5574 5573 5572 5571 5570 5569 5567 5566 5565 5564 5563 5562 5561 5561 5560 5560 5560 5559 5558 5558 5558 5557 5557 5557 5557 5558 5558 5558 5558 5559 5559 5560 5560 5561 5561 5561 5560 5560 5560 5560
5565 5564 5563 5561 5560 5558 5557 5556 5554 5553 5551 5550 5549 5548 5546 5546 5545 5544 5544 5543 5543 5542 5542 5541 5541 5541 5541 5541 5541 5541 5542 5542 5542 5543 5543 5544 5544 5543 5543 5543 5543 5543 5543
5552 5551 5549 5548 5546 5544 5543 5541 5539 5537 5536 5534 5533 5531 5530 5530 5529 5528 5527 5527 5526 5525 5525 5525 5525 5524 5524 5525 5525 5525 5525 5526 5526 5527 5527 5527 5527 5526 5526 5526 5526 5526 5526
5539 5537 5535 5534 5532 5530 5528 5526 5524 5522 5520 5518 5517 5515 5514 5513 5513 5512 5511 5510 5509 5509 5508 5508 5508 5508 5508 5508 5508 5508 5509 5509 5510 5510 5510 5510 5510 5509 5509 5509 5509 5508 5508
5526 5524 5522 5520 5518 5515 5513 5511 5508 5506 5504 5502 5501 5500 5498 5497 5496 5495 5494 5493 5493 5492 5492 5492 5492 5492 5492 5492 5492 5491 5492 5492 5493 5493 5493 5493 5493 5492 5492 5492 5492 5492 5492
5513 5511 5508 5506 5503 5500 5498 5495 5493 5491 5489 5487 5485 5484 5483 5481 5480 5479 5478 5477 5476 5476 5475 5475 5475 5475 5475 5475 5475 5475 5475 5476 5476 5476 5476 5476 5476 5476 5475 5475 5476 5476 5475
5500 5497 5494 5492 5489 5486 5483 5481 5478 5476 5474 5472 5470 5468 5466 5465 5464 5462 5461 5461 5460 5460 5459 5459 5459 5459 5459 5459 5459 5458 5459 5459 5460 5460 5459 5459 5459 5458 5457 5458 5458 5458 5458
5486 5483 5481 5478 5475 5472 5469 5466 5463 5461 5459 5456 5454 5452 5451 5449 5448 5446 5446 5445 5444 5444 5444 5444 5444 5443 5443 5443 5443 5442 5442 5442 5442 5443 5443 5443 5442 5441 5441 5441 5441 5442 5441
5472 5469 5466 5463 5460 5457 5455 5452 5449 5446 5443 5441 5439 5437 5435 5434 5432 5431 5430 5429 5429 5428 5428 5428 5428 5427 5427 5427 5426 5426 5425 5425 5426 5426 5426 5426 5425 5425 5425 5425 5425 5425 5425
5458 5455 5452 5449 5446 5443 5440 5437 5434 5431 5429 5426 5424 5422 5421 5419 5418 5417 5416 5415 5414 5413 5413 5412 5412 5412 5411 5411 5410 5410 5409 5409 5409 5410 5410 5410 5409 5409 5409 5409 5409 5408 5408
5444 5441 5438 5435 5432 5429 5426 5423 5420 5417 5414 5412 5410 5408 5407 5405 5403 5402 5401 5400 5399 5398 5398 5397 5397 5397 5396 5395 5395 5394 5394 5394 5393 5393 5393 5393 5393 5393 5393 5393 5393 5392 5392
5430 5427 5424 5421 5418 5415 5412 5409 5406 5403 5401 5398 5396 5394 5393 5391 5389 5388 5386 5385 5385 5384 5383 5383 5382 5382 5382 5381 5380 5379 5379 5378 5378 5377 5377 5378 5378 5378 5377 5377 5377 5376 5376
5416 5413 5410 5408 5405 5402 5399 5396 5393 5390 5387 5385 5383 5381 5379 5377 5376 5374 5373 5372 5371 5370 5369 5368 5368 5367 5367 5366 5366 5365 5364 5364 5363 5363 5363 5363 5362 5362 5361 5361 5361 5360 5360
Wind_Speed
37 39 40 40 40 40 41 41 41 41 42 42 42 43 43 43 43 43 43 43 43 43 44 43 43 43 43 44 43 44 44 44 43 44 44 44 43 43 43 44 44 43 44
37 39 40 40 41 42 42 42 42 43 43 43 44 44 44 45 45 45 45 46 45 46 46 46 46 46 46 46 45 45 45 45 45 45 45 45 45 44 44 45 45 45 45
37 39 40 40 41 42 43 43 43 43 44 45 44 45 46 47 46 47 47 48 48 47 47 48 48 48 48 47 46 47 47 47 47 46 46 45 45 45 45 45 45 46 46
38 39 40 41 42 43 44 45 45 45 45 46 45 46 47 47 48 49 49 49 50 49 49 49 48 48 49 49 48 48 48 48 48 47 47 47 47 46 46 46 46 46 47
38 39 40 41 42 43 44 45 46 46 46 47 46 46 47 48 50 51 52 52 51 52 52 52 51 50 50 50 49 50 50 49 49 49 49 49 49 48 48 47 47 48 48
38 39 41 42 42 43 44 45 46 46 47 48 49 48 48 49 50 51 53 54 54 53 54 54 54 53 53 52 51 51 51 52 52 51 50 50 50 49 49 49 49 49 49
38 39 41 42 43 44 45 46 47 47 48 49 51 51 51 51 51 51 52 54 55 55 55 55 55 55 56 55 54 54 53 53 53 53 52 52 51 51 51 50 50 50 50
39 40 41 43 44 44 45 47 48 48 49 49 51 52 53 53 53 52 53 53 55 56 56 56 56 56 56 57 57 56 56 55 54 54 53 53 53 53 53 53 52 52 52
39 41 42 43 44 45 46 46 48 49 50 51 52 53 54 55 54 54 55 54 55 56 56 57 57 57 57 58 58 58 57 56 55 55 54 54 53 53 54 55 55 55 55
40 41 42 44 45 46 47 47 48 49 50 51 52 53 54 55 55 55 56 56 56 56 56 57 57 58 58 58 58 58 58 58 57 57 57 56 56 55 55 56 57 57 56
40 42 44 45 46 47 48 49 49 50 50 51 53 53 55 55 55 56 56 56 56 56 56 57 57 58 58 59 59 59 59 59 59 59 59 59 58 58 57 57 58 58 58
42 43 44 45 46 47 48 49 50 51 52 52 53 53 54 55 55 55 56 56 57 57 57 57 58 59 59 58 59 59 59 59 60 60 60 60 59 59 59 59 59 58 58
43 43 44 45 46 46 47 48 50 51 53 53 54 54 55 55 56 56 56 56 56 57 58 58 59 59 59 59 59 60 60 60 60 60 60 59 59 59 59 60 61 60 59
43 44 44 44 45 46 47 48 50 51 52 53 54 55 55 56 56 56 56 57 58 58 58 58 59 59 59 59 59 59 59 60 60 60 61 60 60 60 60 60 61 61 61
44 44 44 45 45 47 47 48 49 50 52 53 54 55 55 55 56 56 57 58 58 59 59 60 60 59 59 59 58 58 58 59 59 59 60 60 61 61 61 61 61 60 61
44 45 45 46 47 47 48 49 50 51 52 53 54 54 54 55 55 56 56 57 57 58 58 59 59 59 60 59 58 58 58 58 58 58 59 59 60 60 61 61 60 60 59
44 45 46 47 48 49 50 51 52 52 52 53 53 53 54 54 55 55 56 56 56 56 56 57 57 58 58 59 59 59 58 58 58 58 58 59 59 59 59 59 59 59 59
43 44 45 47 48 49 50 50 51 51 51 51 51 52 53 54 55 55 55 56 55 55 55 55 55 56 56 57 57 58 58 59 58 58 58 58 58 57 58 58 58 58 58
42 43 44 46 47 48 49 50 50 50 50 50 51 51 51 52 52 53 53 54 54 54 54 54 54 54 55 56 56 57 57 58 57 57 57 57 57 57 57 57 57 57 58
43 43 44 45 46 47 47 48 48 49 49 49 49 50 50 51 51 51 51 52 52 52 53 53 54 54 54 55 55 56 56 57 57 56 56 56 56 56 56 56 55 55 56
43 44 45 45 45 46 47 47 47 47 48 48 49 49 50 50 50 49 49 50 50 51 51 52 53 53 54 54 54 54 55 54 54 54 55 55 55 55 54 55 54 54 54
44 45 45 45 45 45 46 46 46 46 46 47 47 48 48 48 47 47 48 49 49 49 50 50 51 51 51 52 52 52 52 53 52 53 53 54 55 54 54 54 54 55 55
45 45 45 45 45 45 45 45 45 45 45 45 45 46 46 46 46 46 47 47 47 48 48 48 49 49 50 50 51 51 51 52 52 52 52 53 53 53 54 54 55 55 55
45 44 44 44 44 43 43 44 44 44 43 43 44 45 45 45 45 45 46 46 45 46 46 46 47 48 48 48 49 50 50 51 51 51 51 52 52 52 53 53 53 53 53
43 43 43 43 43 42 42 42 42 43 43 43 43 43 44 44 44 44 44 44 44 45 45 45 45 45 46 46 47 47 47 48 48 49 49 50 50 51 51 51 51 52 53
42 42 42 42 42 42 41 41 41 42 42 42 42 42 43 43 43 43 43 43 43 43 43 43 43 43 43 43 44 44 45 45 46 46 47 47 48 49 49 49 49 50 50
Wind_Direction
255 253 253 251 251 252 252 253 254 253 253 253 254 254 254 255 256 256 257 257 259 261 262 264 266 266 266 265 265 265 265 265 265 265 264 264 265 265 265 265 264 264 265
256 255 254 254 252 252 253 254 255 253 253 254 255 255 255 255 256 257 258 259 260 262 262 263 264 265 266 266 266 265 265 265 265 265 265 265 265 265 265 265 265 265 265
258 256 255 254 254 253 253 254 255 255 254 254 255 256 255 255 256 257 258 260 262 263 264 264 264 264 264 265 266 266 265 265 265 265 265 266 266 266 265 265 265 265 265
259 257 256 255 255 255 255 254 254 255 255 255 255 256 257 257 257 258 259 261 262 263 263 263 264 264 265 265 265 265 266 265 265 265 265 266 266 266 265 265 265 265 266
261 260 259 258 257 257 257 257 256 256 255 256 256 257 258 258 258 259 260 261 263 263 262 263 264 264 264 265 265 265 265 265 265 265 265 266 266 266 266 265 266 266 266
262 262 261 260 260 259 260 259 258 258 258 257 257 257 258 259 260 260 261 262 262 262 262 263 264 264 264 264 264 265 265 266 266 265 265 265 265 266 266 266 266 266 266
263 262 262 262 262 262 262 261 259 260 260 260 260 260 260 260 261 262 263 263 262 261 262 262 263 263 264 264 264 264 264 265 265 265 265 265 264 264 265 265 266 267 267
265 264 265 264 263 263 263 262 261 261 262 262 263 263 262 262 262 263 263 263 262 262 262 262 262 263 263 264 264 265 265 265 264 264 264 265 265 265 265 265 266 267 267
267 266 265 265 264 264 264 263 263 263 263 263 263 264 265 264 264 263 263 263 263 263 262 262 262 263 263 264 264 264 265 265 265 264 263 264 265 266 266 266 266 267 267
268 267 267 267 266 265 265 265 264 264 264 265 265 266 265 265 265 264 264 263 263 263 263 263 263 263 263 263 264 264 264 265 265 265 265 265 266 267 267 268 267 268 268
270 269 269 268 268 267 267 267 266 266 266 266 266 267 267 266 266 265 265 264 264 264 263 264 264 264 264 264 263 263 264 264 264 265 265 266 267 267 267 268 268 268 268
272 272 271 271 270 269 269 268 268 268 268 268 267 268 268 267 266 266 266 266 265 265 264 264 265 265 264 264 263 263 264 264 264 264 265 266 267 268 268 268 268 268 268
273 273 273 273 272 271 270 270 269 269 269 269 269 269 268 268 267 266 266 266 266 266 266 266 265 265 264 264 264 264 264 264 264 264 265 266 266 267 268 268 268 268 268
275 274 274 274 273 272 272 271 271 270 270 270 269 269 269 268 267 267 266 266 266 266 266 266 266 265 265 265 265 265 264 264 264 264 265 266 266 267 267 268 269 269 268
276 276 274 274 274 273 273 273 272 272 271 271 270 269 269 268 268 267 267 267 267 267 266 266 265 265 265 265 265 265 265 264 265 265 265 266 267 267 268 268 268 268 268
276 276 275 275 274 274 274 274 274 274 273 272 271 270 269 268 268 268 268 267 267 267 266 266 266 265 265 265 265 265 265 264 264 265 266 266 268 268 268 268 268 267 267
278 277 277 276 276 275 275 275 275 275 274 273 271 270 269 268 268 268 268 268 268 267 267 266 266 265 265 265 264 265 264 264 265 266 266 267 268 268 268 268 268 267 267
280 279 279 279 278 278 277 277 276 276 275 274 272 271 270 269 269 268 268 268 267 267 267 266 265 265 265 265 265 265 264 264 265 266 267 267 267 267 268 268 268 268 268
281 281 281 281 280 279 278 278 277 276 275 274 273 273 271 270 270 270 269 268 268 267 266 265 265 265 265 266 266 266 265 265 265 266 267 267 267 267 267 268 268 268 267
282 283 283 283 282 281 280 279 278 277 276 275 274 273 272 272 271 270 270 269 268 267 266 265 265 266 266 267 267 266 266 266 266 266 267 267 268 268 268 268 268 267 267
283 284 284 284 284 283 281 280 279 278 276 275 274 273 273 272 271 270 269 269 268 268 267 267 267 267 267 267 267 267 267 266 266 266 266 266 267 268 268 269 268 267 266
283 284 284 285 285 284 283 282 280 279 277 276 275 274 273 272 272 271 271 270 269 268 268 268 268 268 268 268 268 268 267 266 266 267 267 267 267 267 268 268 268 267 267
283 284 285 285 285 285 284 282 281 280 278 277 276 274 273 272 272 272 271 271 270 270 269 268 268 268 269 269 269 269 268 267 267 267 267 267 267 267 268 268 268 267 267
283 283 284 285 285 285 284 283 282 280 279 278 276 275 273 273 272 272 272 271 270 270 269 269 269 269 270 270 269 270 269 269 268 268 268 268 268 268 269 268 268 268 268
284 285 285 285 285 284 284 283 282 280 279 278 277 275 274 274 273 273 273 272 271 271 271 271 271 270 270 270 270 271 270 270 269 268 268 268 268 268 268 268 268 268 268
285 285 285 285 285 285 284 284 283 281 279 279 278 276 276 275 274 274 273 272 273 273 272 272 271 270 270 270 270 270 271 270 270 269 269 269 269 269 269 269 268 267 267